| time (UTC) | temp C | wind direction | speed KPH | gust KPH | rain 1hr cm | rain 24hr cm | rain mn cm | humidity % | barometer mb |
| 20260507135704 | 11 | 209 | 9.7 | 19.3 | 0.00 | 0.13 | 0.13 | 88 | 1010.2 |
| 20260507135204 | 11 | 216 | 11.3 | 19.3 | 0.05 | 0.13 | 0.13 | 88 | 1010.2 |
| 20260507134704 | 11 | 217 | 11.3 | 29.0 | 0.05 | 0.13 | 0.13 | 89 | 1010.2 |
| 20260507134203 | 11 | 207 | 8.0 | 14.5 | 0.05 | 0.13 | 0.13 | 89 | 1010.2 |
| 20260507133704 | 11 | 210 | 11.3 | 19.3 | 0.05 | 0.13 | 0.13 | 89 | 1010.2 |
| 20260507133204 | 11 | 215 | 8.0 | 19.3 | 0.05 | 0.13 | 0.13 | 89 | 1010.2 |
| 20260507132703 | 11 | 202 | 12.9 | 20.9 | 0.05 | 0.13 | 0.13 | 89 | 1010.3 |
| 20260507132204 | 11 | 191 | 11.3 | 19.3 | 0.05 | 0.13 | 0.13 | 89 | 1010.2 |
| 20260507131704 | 11 | 211 | 9.7 | 19.3 | 0.05 | 0.13 | 0.13 | 89 | 1010.3 |
| 20260507131204 | 10 | 211 | 8.0 | 14.5 | 0.05 | 0.13 | 0.13 | 89 | 1010.4 |
| 20260507130704 | 10 | 192 | 9.7 | 16.1 | 0.05 | 0.13 | 0.13 | 89 | 1010.3 |
| 20260507130203 | 10 | 209 | 9.7 | 19.3 | 0.05 | 0.13 | 0.13 | 87 | 1010.3 |
| 20260507125704 | 10 | 205 | 14.5 | 24.1 | 0.05 | 0.13 | 0.13 | 87 | 1010.5 |
| 20260507125203 | 10 | 203 | 16.1 | 27.4 | 0.03 | 0.08 | 0.08 | 86 | 1010.4 |
| 20260507124704 | 10 | 203 | 11.3 | 19.3 | 0.03 | 0.08 | 0.08 | 87 | 1010.4 |
| 20260507124204 | 11 | 197 | 11.3 | 22.5 | 0.03 | 0.08 | 0.08 | 87 | 1010.3 |
| 20260507123704 | 11 | 194 | 11.3 | 20.9 | 0.03 | 0.08 | 0.08 | 86 | 1010.3 |
| 20260507123204 | 11 | 194 | 9.7 | 19.3 | 0.03 | 0.08 | 0.08 | 86 | 1010.3 |
| 20260507122705 | 11 | 215 | 9.7 | 14.5 | 0.03 | 0.08 | 0.08 | 88 | 1010.3 |
| 20260507122204 | 11 | 199 | 9.7 | 19.3 | 0.03 | 0.08 | 0.08 | 88 | 1010.3 |
| 20260507121704 | 10 | 211 | 11.3 | 20.9 | 0.05 | 0.08 | 0.08 | 87 | 1010.3 |
| 20260507121204 | 10 | 217 | 8.0 | 16.1 | 0.08 | 0.08 | 0.08 | 88 | 1010.4 |
| 20260507120203 | 10 | 212 | 9.7 | 16.1 | 0.08 | 0.08 | 0.08 | 88 | 1010.5 |
| 20260507115703 | 10 | 230 | 8.0 | 16.1 | 0.05 | 0.05 | 0.05 | 87 | 1010.6 |
| 20260507115204 | 10 | 207 | 11.3 | 19.3 | 0.05 | 0.05 | 0.05 | 87 | 1010.5 |
| 20260507114204 | 10 | 203 | 9.7 | 14.5 | 0.05 | 0.05 | 0.05 | 86 | 1010.6 |
| 20260507113704 | 10 | 212 | 11.3 | 20.9 | 0.05 | 0.05 | 0.05 | 86 | 1010.6 |
| 20260507113204 | 10 | 200 | 9.7 | 16.1 | 0.05 | 0.05 | 0.05 | 86 | 1010.6 |
| 20260507112703 | 10 | 220 | 6.4 | 9.7 | 0.05 | 0.05 | 0.05 | 85 | 1010.5 |
| 20260507112204 | 10 | 216 | 8.0 | 16.1 | 0.05 | 0.05 | 0.05 | 83 | 1010.6 |
| 20260507111704 | 10 | 220 | 8.0 | 11.3 | 0.03 | 0.03 | 0.03 | 82 | 1010.6 |
| 20260507110204 | 10 | 261 | 9.7 | 19.3 | 0.00 | 0.00 | 0.00 | 81 | 1010.4 |
| 20260507105704 | 10 | 234 | 8.0 | 19.3 | 0.00 | 0.00 | 0.00 | 81 | 1010.4 |
| 20260507105204 | 10 | 236 | 11.3 | 19.3 | 0.00 | 0.00 | 0.00 | 81 | 1010.4 |
| 20260507104703 | 10 | 221 | 11.3 | 24.1 | 0.00 | 0.00 | 0.00 | 80 | 1010.4 |
| 20260507104204 | 11 | 240 | 11.3 | 19.3 | 0.00 | 0.00 | 0.00 | 78 | 1010.3 |
| 20260507103703 | 11 | 229 | 11.3 | 20.9 | 0.00 | 0.00 | 0.00 | 78 | 1010.4 |
| 20260507103204 | 11 | 236 | 16.1 | 27.4 | 0.00 | 0.00 | 0.00 | 76 | 1010.3 |
| 20260507102703 | 11 | 231 | 11.3 | 24.1 | 0.00 | 0.00 | 0.00 | 76 | 1010.2 |
| 20260507102204 | 11 | 193 | 16.1 | 24.1 | 0.00 | 0.00 | 0.00 | 75 | 1010.1 |
| 20260507101703 | 12 | 208 | 14.5 | 25.7 | 0.00 | 0.00 | 0.00 | 76 | 1010.0 |
| 20260507101203 | 12 | 176 | 19.3 | 27.4 | 0.00 | 0.00 | 0.00 | 75 | 1010.0 |
| 20260507100204 | 11 | 202 | 14.5 | 27.4 | 0.00 | 0.00 | 0.00 | 77 | 1010.2 |
| 20260507095703 | 11 | 212 | 11.3 | 22.5 | 0.00 | 0.00 | 0.00 | 78 | 1010.2 |
| 20260507095204 | 11 | 201 | 9.7 | 24.1 | 0.00 | 0.00 | 0.00 | 78 | 1010.2 |
| 20260507094704 | 11 | 204 | 14.5 | 20.9 | 0.00 | 0.00 | 0.00 | 78 | 1010.2 |
| 20260507094204 | 11 | 197 | 14.5 | 19.3 | 0.00 | 0.00 | 0.00 | 78 | 1010.2 |
| 20260507093204 | 11 | 222 | 14.5 | 25.7 | 0.00 | 0.00 | 0.00 | 79 | 1010.3 |
| 20260507092703 | 11 | 210 | 14.5 | 20.9 | 0.00 | 0.00 | 0.00 | 80 | 1010.3 |
| 20260507092203 | 10 | 228 | 9.7 | 20.9 | 0.00 | 0.00 | 0.00 | 80 | 1010.3 |
| 20260507091704 | 10 | 212 | 14.5 | 22.5 | 0.00 | 0.00 | 0.00 | 80 | 1010.4 |
| 20260507091204 | 10 | 202 | 16.1 | 25.7 | 0.00 | 0.00 | 0.00 | 80 | 1010.4 |
| 20260507090704 | 10 | 206 | 14.5 | 27.4 | 0.00 | 0.00 | 0.00 | 81 | 1010.2 |
| 20260507090203 | 10 | 201 | 12.9 | 27.4 | 0.00 | 0.00 | 0.00 | 81 | 1010.3 |
| 20260507085704 | 10 | 219 | 14.5 | 22.5 | 0.00 | 0.00 | 0.00 | 81 | 1010.2 |
| 20260507085203 | 10 | 205 | 16.1 | 25.7 | 0.00 | 0.00 | 0.00 | 81 | 1010.3 |
| 20260507084704 | 10 | 190 | 14.5 | 25.7 | 0.00 | 0.00 | 0.00 | 81 | 1010.3 |
| 20260507084204 | 10 | 207 | 16.1 | 25.7 | 0.00 | 0.00 | 0.00 | 81 | 1010.3 |
| 20260507083705 | 10 | 209 | 14.5 | 24.1 | 0.00 | 0.00 | 0.00 | 81 | 1010.3 |
| 20260507083203 | 10 | 216 | 9.7 | 22.5 | 0.00 | 0.00 | 0.00 | 82 | 1010.3 |
| 20260507082703 | 9 | 195 | 11.3 | 19.3 | 0.00 | 0.00 | 0.00 | 82 | 1010.4 |
| 20260507082203 | 9 | 206 | 11.3 | 19.3 | 0.00 | 0.00 | 0.00 | 82 | 1010.3 |
| 20260507081203 | 9 | 211 | 19.3 | 29.0 | 0.00 | 0.00 | 0.00 | 82 | 1010.5 |
| 20260507080203 | 9 | 203 | 11.3 | 19.3 | 0.00 | 0.00 | 0.00 | 82 | 1010.5 |
| 20260507075704 | 9 | 207 | 14.5 | 25.7 | 0.00 | 0.00 | 0.00 | 81 | 1010.5 |
| 20260507075203 | 9 | 204 | 14.5 | 22.5 | 0.00 | 0.00 | 0.00 | 81 | 1010.3 |
| 20260507074704 | 10 | 212 | 11.3 | 22.5 | 0.00 | 0.00 | 0.00 | 82 | 1010.3 |
| 20260507074204 | 9 | 207 | 14.5 | 22.5 | 0.00 | 0.00 | 0.00 | 82 | 1010.4 |
| 20260507073704 | 9 | 206 | 11.3 | 22.5 | 0.00 | 0.00 | 0.00 | 83 | 1010.4 |
| 20260507073203 | 8 | 210 | 11.3 | 24.1 | 0.00 | 0.00 | 0.00 | 83 | 1010.4 |
| 20260507072703 | 8 | 208 | 8.0 | 19.3 | 0.00 | 0.00 | 0.00 | 83 | 1010.4 |
| 20260507072203 | 8 | 216 | 9.7 | 16.1 | 0.00 | 0.00 | 0.00 | 84 | 1010.4 |
| 20260507071704 | 8 | 206 | 11.3 | 20.9 | 0.00 | 0.00 | 0.00 | 84 | 1010.4 |
| 20260507071204 | 8 | 210 | 8.0 | 16.1 | 0.00 | 0.00 | 0.00 | 84 | 1010.3 |
| 20260507070703 | 8 | 203 | 9.7 | 16.1 | 0.00 | 0.00 | 0.00 | 84 | 1010.4 |
| 20260507070204 | 8 | 217 | 6.4 | 11.3 | 0.00 | 0.00 | 0.00 | 84 | 1010.4 |
| 20260507065704 | 8 | 219 | 8.0 | 14.5 | 0.00 | 0.00 | 0.00 | 84 | 1010.4 |
| 20260507065203 | 7 | 216 | 6.4 | 11.3 | 0.00 | 0.00 | 0.00 | 84 | 1010.4 |
| 20260507064703 | 7 | 208 | 8.0 | 12.9 | 0.00 | 0.00 | 0.00 | 84 | 1010.3 |
| 20260507064204 | 7 | 214 | 9.7 | 16.1 | 0.00 | 0.00 | 0.00 | 84 | 1010.3 |
| 20260507063703 | 7 | 199 | 8.0 | 20.9 | 0.00 | 0.00 | 0.00 | 84 | 1010.2 |
| 20260507063203 | 7 | 201 | 9.7 | 14.5 | 0.00 | 0.00 | 0.00 | 85 | 1010.2 |
| 20260507062703 | 7 | 206 | 9.7 | 19.3 | 0.00 | 0.00 | 0.00 | 85 | 1010.2 |
| 20260507062204 | 7 | 204 | 9.7 | 16.1 | 0.00 | 0.00 | 0.00 | 85 | 1010.2 |
| 20260507061703 | 7 | 201 | 8.0 | 14.5 | 0.00 | 0.00 | 0.00 | 85 | 1010.2 |
| 20260507061204 | 7 | 201 | 6.4 | 12.9 | 0.00 | 0.00 | 0.00 | 85 | 1010.2 |
| 20260507060703 | 6 | 215 | 8.0 | 12.9 | 0.00 | 0.00 | 0.00 | 85 | 1010.2 |
| 20260507060204 | 6 | 212 | 8.0 | 14.5 | 0.00 | 0.00 | 0.00 | 85 | 1010.2 |
| 20260507055704 | 6 | 220 | 9.7 | 14.5 | 0.00 | 0.00 | 0.00 | 85 | 1010.2 |
| 20260507055204 | 6 | 211 | 11.3 | 16.1 | 0.00 | 0.00 | 0.00 | 85 | 1010.3 |
| 20260507054704 | 6 | 209 | 9.7 | 14.5 | 0.00 | 0.00 | 0.00 | 85 | 1010.2 |
| 20260507054204 | 6 | 203 | 8.0 | 14.5 | 0.00 | 0.00 | 0.00 | 85 | 1010.3 |
| 20260507053703 | 6 | 203 | 9.7 | 12.9 | 0.00 | 0.00 | 0.00 | 85 | 1010.3 |
| 20260507053204 | 6 | 210 | 9.7 | 12.9 | 0.00 | 0.00 | 0.00 | 85 | 1010.3 |
| 20260507052704 | 6 | 208 | 9.7 | 14.5 | 0.00 | 0.00 | 0.00 | 85 | 1010.2 |
| 20260507052203 | 6 | 211 | 8.0 | 14.5 | 0.00 | 0.00 | 0.00 | 85 | 1010.3 |
| 20260507051703 | 5 | 213 | 8.0 | 12.9 | 0.00 | 0.00 | 0.00 | 85 | 1010.4 |
| 20260507051204 | 5 | 196 | 8.0 | 14.5 | 0.00 | 0.00 | 0.00 | 85 | 1010.3 |
| 20260507050204 | 6 | 210 | 4.8 | 9.7 | 0.00 | 0.00 | 0.00 | 85 | 1010.4 |
| 20260507045704 | 6 | 221 | 4.8 | 9.7 | 0.00 | 0.00 | 0.00 | 85 | 1010.4 |
| 20260507045203 | 6 | 217 | 4.8 | 11.3 | 0.00 | 0.00 | 0.00 | 85 | 1010.5 |
| 20260507044704 | 5 | 209 | 6.4 | 9.7 | 0.00 | 0.00 | 0.00 | 86 | 1010.5 |
| 20260507044203 | 5 | 205 | 4.8 | 8.0 | 0.00 | 0.00 | 0.00 | 85 | 1010.5 |
| 20260507043704 | 5 | 204 | 4.8 | 8.0 | 0.00 | 0.00 | 0.00 | 86 | 1010.7 |
| 20260507043203 | 5 | 219 | 3.2 | 8.0 | 0.00 | 0.00 | 0.00 | 86 | 1010.7 |
| 20260507042204 | 4 | 185 | 1.6 | 4.8 | 0.00 | 0.00 | 0.00 | 85 | 1010.6 |
| 20260507041703 | 3 | 254 | 0.0 | 1.6 | 0.00 | 0.00 | 0.00 | 84 | 1010.7 |
| 20260507041204 | 3 | 258 | 0.0 | 1.6 | 0.00 | 0.00 | 0.00 | 84 | 1010.7 |
| 20260507040704 | 3 | 272 | 1.6 | 3.2 | 0.00 | 0.00 | 0.00 | 84 | 1010.8 |
| 20260507040204 | 4 | 254 | 1.6 | 3.2 | 0.00 | 0.00 | 0.00 | 84 | 1010.7 |
| 20260507034703 | 3 | 187 | 1.6 | 4.8 | 0.00 | 0.00 | 0.00 | 84 | 1010.6 |
| 20260507034204 | 3 | 193 | 3.2 | 4.8 | 0.00 | 0.00 | 0.00 | 84 | 1010.7 |
| 20260507033703 | 3 | 205 | 1.6 | 3.2 | 0.00 | 0.00 | 0.00 | 83 | 1010.7 |
| 20260507032204 | 3 | 263 | 3.2 | 3.2 | 0.00 | 0.00 | 0.00 | 83 | 1010.6 |
| 20260507031704 | 4 | 258 | 1.6 | 4.8 | 0.00 | 0.00 | 0.00 | 83 | 1010.6 |
| 20260507031204 | 4 | 233 | 3.2 | 4.8 | 0.00 | 0.00 | 0.00 | 83 | 1010.7 |
| 20260507030704 | 4 | 183 | 1.6 | 4.8 | 0.00 | 0.00 | 0.00 | 83 | 1010.7 |
| 20260507030203 | 4 | 206 | 3.2 | 4.8 | 0.00 | 0.00 | 0.00 | 82 | 1010.8 |
| 20260507025204 | 5 | 209 | 3.2 | 4.8 | 0.00 | 0.00 | 0.00 | 83 | 1010.9 |
| 20260507024704 | 5 | 210 | 3.2 | 4.8 | 0.00 | 0.00 | 0.00 | 83 | 1010.9 |
| 20260507024203 | 5 | 194 | 3.2 | 4.8 | 0.00 | 0.00 | 0.00 | 83 | 1011.0 |
| 20260507023203 | 5 | 193 | 4.8 | 8.0 | 0.00 | 0.00 | 0.00 | 84 | 1010.9 |
| 20260507022704 | 5 | 188 | 3.2 | 4.8 | 0.00 | 0.00 | 0.00 | 84 | 1010.9 |
| 20260507022204 | 5 | 193 | 3.2 | 12.9 | 0.00 | 0.00 | 0.00 | 84 | 1010.8 |
| 20260507021703 | 5 | 189 | 4.8 | 11.3 | 0.00 | 0.00 | 0.00 | 85 | 1011.0 |
| 20260507021204 | 4 | 157 | 8.0 | 12.9 | 0.00 | 0.00 | 0.00 | 85 | 1010.9 |
| 20260507020704 | 4 | 164 | 4.8 | 8.0 | 0.00 | 0.00 | 0.00 | 84 | 1011.0 |
| 20260507015703 | 3 | 191 | 3.2 | 4.8 | 0.00 | 0.00 | 0.00 | 84 | 1011.2 |
| 20260507015204 | 3 | 199 | 3.2 | 4.8 | 0.00 | 0.00 | 0.00 | 84 | 1011.2 |
| 20260507014704 | 4 | 197 | 3.2 | 4.8 | 0.00 | 0.00 | 0.00 | 84 | 1011.2 |
| 20260507014204 | 3 | 205 | 1.6 | 4.8 | 0.00 | 0.00 | 0.00 | 84 | 1011.3 |
| 20260507013705 | 3 | 203 | 3.2 | 4.8 | 0.00 | 0.00 | 0.00 | 85 | 1011.3 |
| 20260507013204 | 3 | 186 | 3.2 | 8.0 | 0.00 | 0.00 | 0.00 | 85 | 1011.2 |
| 20260507012703 | 3 | 179 | 1.6 | 4.8 | 0.00 | 0.00 | 0.00 | 85 | 1011.3 |
| 20260507011704 | 2 | 162 | 0.0 | 3.2 | 0.00 | 0.00 | 0.00 | 84 | 1011.4 |
| 20260507011204 | 2 | 165 | 0.0 | 3.2 | 0.00 | 0.00 | 0.00 | 84 | 1011.4 |
| 20260507010703 | 2 | 165 | 1.6 | 3.2 | 0.00 | 0.00 | 0.00 | 84 | 1011.5 |
| 20260507010204 | 3 | 165 | 0.0 | 1.6 | 0.00 | 0.00 | 0.00 | 84 | 1011.5 |
| 20260507005704 | 3 | 165 | 1.6 | 3.2 | 0.00 | 0.00 | 0.00 | 84 | 1011.5 |
| 20260507005204 | 2 | 165 | 0.0 | 1.6 | 0.00 | 0.00 | 0.00 | 84 | 1011.5 |
| 20260507004204 | 2 | 165 | 1.6 | 3.2 | 0.00 | 0.00 | 0.00 | 84 | 1011.6 |
| 20260507003704 | 2 | 143 | 0.0 | 1.6 | 0.00 | 0.00 | 0.00 | 83 | 1011.6 |
| 20260507003204 | 2 | 117 | 0.0 | 0.0 | 0.00 | 0.00 | 0.00 | 83 | 1011.7 |
| 20260507002703 | 2 | 117 | 0.0 | 0.0 | 0.00 | 0.00 | 0.00 | 83 | 1011.6 |
| 20260507001704 | 2 | 117 | 0.0 | 0.0 | 0.00 | 0.00 | 0.00 | 83 | 1011.8 |
| 20260507001204 | 2 | 117 | 0.0 | 0.0 | 0.00 | 0.00 | 0.00 | 82 | 1011.8 |
| 20260507000704 | 2 | 117 | 0.0 | 0.0 | 0.00 | 0.00 | 0.00 | 82 | 1011.8 |
| 20260506235703 | 2 | 126 | 0.0 | 0.0 | 0.00 | 0.00 | 0.00 | 82 | 1011.7 |
| 20260506234704 | 2 | 126 | 0.0 | 0.0 | 0.00 | 0.00 | 0.00 | 82 | 1011.7 |
| 20260506234204 | 2 | 130 | 0.0 | 0.0 | 0.00 | 0.00 | 0.00 | 82 | 1011.7 |
| 20260506233204 | 2 | 131 | 0.0 | 0.0 | 0.00 | 0.00 | 0.00 | 82 | 1011.7 |
| 20260506232203 | 2 | 130 | 0.0 | 0.0 | 0.00 | 0.00 | 0.00 | 82 | 1011.8 |
| 20260506231704 | 2 | 130 | 0.0 | 0.0 | 0.00 | 0.00 | 0.00 | 81 | 1011.8 |
| 20260506231203 | 2 | 130 | 0.0 | 0.0 | 0.00 | 0.00 | 0.00 | 81 | 1012.0 |
| 20260506230704 | 2 | 130 | 0.0 | 1.6 | 0.00 | 0.00 | 0.00 | 81 | 1012.0 |
| 20260506230204 | 2 | 130 | 0.0 | 1.6 | 0.00 | 0.00 | 0.00 | 80 | 1012.0 |
| 20260506225705 | 3 | 130 | 0.0 | 1.6 | 0.00 | 0.00 | 0.00 | 80 | 1012.1 |
| 20260506225204 | 3 | 130 | 0.0 | 0.0 | 0.00 | 0.00 | 0.00 | 80 | 1012.2 |
| 20260506224204 | 3 | 133 | 3.2 | 4.8 | 0.00 | 0.00 | 0.00 | 81 | 1012.3 |
| 20260506223703 | 3 | 134 | 3.2 | 4.8 | 0.00 | 0.00 | 0.00 | 81 | 1012.2 |
| 20260506223205 | 3 | 140 | 3.2 | 4.8 | 0.00 | 0.00 | 0.00 | 80 | 1012.3 |
| 20260506222704 | 3 | 116 | 1.6 | 4.8 | 0.00 | 0.00 | 0.00 | 79 | 1012.3 |
| 20260506222205 | 3 | 88 | 1.6 | 3.2 | 0.00 | 0.00 | 0.00 | 79 | 1012.3 |
| 20260506221704 | 3 | 130 | 1.6 | 3.2 | 0.00 | 0.00 | 0.00 | 80 | 1012.2 |
| 20260506221203 | 3 | 130 | 1.6 | 4.8 | 0.00 | 0.00 | 0.00 | 80 | 1012.3 |
| 20260506220704 | 3 | 127 | 3.2 | 4.8 | 0.00 | 0.00 | 0.00 | 79 | 1012.2 |
| 20260506220203 | 3 | 138 | 3.2 | 4.8 | 0.00 | 0.00 | 0.00 | 79 | 1012.2 |
| 20260506215704 | 4 | 111 | 3.2 | 4.8 | 0.00 | 0.00 | 0.00 | 79 | 1012.2 |
| 20260506215203 | 4 | 103 | 1.6 | 4.8 | 0.00 | 0.00 | 0.00 | 79 | 1012.3 |
| 20260506214704 | 4 | 103 | 1.6 | 3.2 | 0.00 | 0.00 | 0.00 | 79 | 1012.3 |
| 20260506213703 | 5 | 97 | 3.2 | 4.8 | 0.00 | 0.00 | 0.00 | 78 | 1012.3 |
| 20260506213204 | 5 | 93 | 1.6 | 3.2 | 0.00 | 0.00 | 0.00 | 79 | 1012.3 |
| 20260506212703 | 5 | 90 | 0.0 | 1.6 | 0.00 | 0.00 | 0.00 | 78 | 1012.4 |
| 20260506212204 | 5 | 80 | 0.0 | 1.6 | 0.00 | 0.00 | 0.00 | 78 | 1012.5 |
| 20260506211704 | 5 | 80 | 1.6 | 1.6 | 0.00 | 0.00 | 0.00 | 78 | 1012.5 |
| 20260506211204 | 5 | 78 | 0.0 | 3.2 | 0.00 | 0.00 | 0.00 | 78 | 1012.4 |
| 20260506210704 | 5 | 76 | 1.6 | 3.2 | 0.00 | 0.00 | 0.00 | 77 | 1012.4 |
| 20260506210204 | 5 | 52 | 0.0 | 0.0 | 0.00 | 0.00 | 0.00 | 77 | 1012.3 |
| 20260506204703 | 6 | 52 | 0.0 | 0.0 | 0.00 | 0.00 | 0.00 | 76 | 1012.2 |
| 20260506204203 | 6 | 52 | 0.0 | 0.0 | 0.00 | 0.00 | 0.00 | 76 | 1012.2 |
| 20260506203705 | 6 | 52 | 0.0 | 0.0 | 0.00 | 0.00 | 0.00 | 76 | 1012.3 |
| 20260506202704 | 6 | 52 | 0.0 | 0.0 | 0.00 | 0.00 | 0.00 | 76 | 1012.2 |
| 20260506201704 | 7 | 52 | 0.0 | 0.0 | 0.00 | 0.00 | 0.00 | 75 | 1011.9 |
| 20260506201204 | 7 | 52 | 0.0 | 0.0 | 0.00 | 0.00 | 0.00 | 75 | 1011.9 |
| 20260506200703 | 7 | 52 | 0.0 | 0.0 | 0.00 | 0.00 | 0.00 | 75 | 1012.0 |
| 20260506195204 | 7 | 52 | 0.0 | 0.0 | 0.00 | 0.00 | 0.00 | 74 | 1012.0 |
| 20260506194704 | 7 | 52 | 0.0 | 0.0 | 0.00 | 0.00 | 0.00 | 74 | 1012.0 |
| 20260506194204 | 7 | 52 | 0.0 | 0.0 | 0.00 | 0.00 | 0.00 | 74 | 1012.2 |
| 20260506193704 | 7 | 52 | 0.0 | 0.0 | 0.00 | 0.00 | 0.00 | 74 | 1012.1 |
| 20260506193204 | 7 | 52 | 0.0 | 0.0 | 0.00 | 0.00 | 0.00 | 74 | 1012.2 |
| 20260506192704 | 8 | 52 | 0.0 | 1.6 | 0.00 | 0.00 | 0.00 | 74 | 1012.3 |
| 20260506192204 | 8 | 52 | 1.6 | 3.2 | 0.00 | 0.00 | 0.00 | 74 | 1012.2 |
| 20260506191205 | 8 | 42 | 1.6 | 3.2 | 0.00 | 0.00 | 0.00 | 74 | 1012.4 |
| 20260506190704 | 8 | 27 | 3.2 | 4.8 | 0.00 | 0.00 | 0.00 | 74 | 1012.4 |
| 20260506190204 | 8 | 25 | 3.2 | 4.8 | 0.00 | 0.00 | 0.00 | 73 | 1012.4 |
| 20260506185704 | 8 | 27 | 3.2 | 4.8 | 0.00 | 0.00 | 0.00 | 73 | 1012.5 |
| 20260506185204 | 8 | 14 | 3.2 | 8.0 | 0.00 | 0.00 | 0.00 | 73 | 1012.4 |
| 20260506184704 | 8 | 4 | 3.2 | 8.0 | 0.00 | 0.00 | 0.00 | 73 | 1012.6 |